• In Russia
  • List of Countries
  • For 7 days
  • Water Temperature
  • Satellite Maps
  • Weather Map
  • Weather Widgets
  • user-avatar
    Login

    Hourly Weather Hajduhadhaz

    Today, 24 September, Sunday

    Time Temperature Precipitation Wind Pressure Humidity
    00:00 +9°C° 0 mm 2 mps 751 mmHg 93%
    01:00 +10°C° 0 mm 1 mps 751 mmHg 94%
    02:00 +10°C° 0 mm 1 mps 751 mmHg 94%
    03:00 +10°C° 0 mm 1 mps 751 mmHg 95%
    04:00 +9°C° 0 mm 1 mps 751 mmHg 95%
    05:00 +10°C° 0 mm 1 mps 751 mmHg 93%
    06:00 +10°C° 0 mm 1 mps 751 mmHg 91%
    07:00 +11°C° 0 mm 1 mps 751 mmHg 89%
    08:00 +12°C° 0 mm 1 mps 751 mmHg 83%
    09:00 +14°C° 0 mm 1 mps 752 mmHg 78%
    10:00 +15°C° 0 mm 1 mps 752 mmHg 72%
    11:00 +16°C° 0 mm 1 mps 752 mmHg 70%
    12:00 +16°C° 0 mm 1 mps 752 mmHg 67%
    13:00 +18°C° 0 mm 1 mps 752 mmHg 64%
    14:00 +18°C° 0 mm 1 mps 752 mmHg 64%
    15:00 +18°C° 0 mm 1 mps 752 mmHg 63%
    16:00 +18°C° 0 mm 1 mps 752 mmHg 63%
    17:00 +16°C° 0 mm 1 mps 752 mmHg 68%
    18:00 +15°C° 0 mm 1 mps 752 mmHg 73%
    19:00 +13°C° 0 mm 0 mps 752 mmHg 78%
    20:00 +13°C° 0 mm 1 mps 752 mmHg 80%
    21:00 +13°C° 0 mm 1 mps 752 mmHg 82%
    22:00 +12°C° 0 mm 1 mps 753 mmHg 84%
    23:00 +12°C° 0 mm 1 mps 753 mmHg 85%

    Tomorrow, 25 September, Monday

    Time Temperature Precipitation Wind Pressure Humidity
    00:00 +12°C° 0 mm 1 mps 753 mmHg 86%
    01:00 +11°C° 0 mm 1 mps 753 mmHg 88%
    02:00 +11°C° 0 mm 1 mps 753 mmHg 88%
    03:00 +11°C° 0 mm 1 mps 753 mmHg 89%
    04:00 +11°C° 0 mm 1 mps 753 mmHg 90%
    05:00 +10°C° 0 mm 2 mps 753 mmHg 87%
    06:00 +12°C° 0 mm 2 mps 753 mmHg 85%
    07:00 +12°C° 0 mm 2 mps 753 mmHg 83%
    08:00 +14°C° 0 mm 2 mps 753 mmHg 75%
    09:00 +16°C° 0 mm 3 mps 753 mmHg 67%
    10:00 +18°C° 0 mm 3 mps 753 mmHg 59%
    11:00 +19°C° 0 mm 3 mps 753 mmHg 56%
    12:00 +20°C° 0 mm 2 mps 753 mmHg 52%
    13:00 +21°C° 0 mm 2 mps 753 mmHg 48%
    14:00 +21°C° 0 mm 2 mps 753 mmHg 49%
    15:00 +21°C° 0 mm 2 mps 753 mmHg 50%
    16:00 +22°C° 0 mm 1 mps 753 mmHg 51%
    17:00 +19°C° 0 mm 2 mps 753 mmHg 55%
    18:00 +17°C° 0 mm 2 mps 753 mmHg 60%
    19:00 +16°C° 0 mm 2 mps 754 mmHg 65%
    20:00 +15°C° 0 mm 2 mps 754 mmHg 67%
    21:00 +15°C° 0 mm 2 mps 754 mmHg 69%
    22:00 +14°C° 0 mm 2 mps 754 mmHg 71%
    23:00 +14°C° 0 mm 2 mps 754 mmHg 72%

    Day after tomorrow, 26 September, Tuesday

    Time Temperature Precipitation Wind Pressure Humidity
    00:00 +14°C° 0 mm 2 mps 754 mmHg 72%
    01:00 +13°C° 0 mm 2 mps 754 mmHg 73%
    02:00 +12°C° 0 mm 3 mps 754 mmHg 74%
    03:00 +12°C° 0 mm 3 mps 754 mmHg 75%
    04:00 +12°C° 0 mm 3 mps 754 mmHg 76%
    05:00 +12°C° 0 mm 3 mps 754 mmHg 74%
    06:00 +13°C° 0 mm 3 mps 754 mmHg 72%
    07:00 +14°C° 0 mm 3 mps 754 mmHg 70%
    08:00 +17°C° 0 mm 3 mps 754 mmHg 64%
    09:00 +19°C° 0 mm 3 mps 754 mmHg 58%
    10:00 +21°C° 0 mm 4 mps 755 mmHg 52%
    11:00 +22°C° 0 mm 4 mps 754 mmHg 48%
    12:00 +23°C° 0 mm 4 mps 754 mmHg 45%
    13:00 +25°C° 0 mm 4 mps 754 mmHg 42%
    14:00 +25°C° 0 mm 3 mps 754 mmHg 45%
    15:00 +24°C° 0 mm 3 mps 754 mmHg 47%
    16:00 +24°C° 0 mm 3 mps 754 mmHg 50%
    17:00 +22°C° 0 mm 3 mps 754 mmHg 54%
    18:00 +20°C° 0 mm 3 mps 754 mmHg 57%
    19:00 +19°C° 0 mm 3 mps 755 mmHg 61%
    20:00 +18°C° 0 mm 3 mps 755 mmHg 63%
    21:00 +18°C° 0 mm 3 mps 755 mmHg 64%
    22:00 +17°C° 0 mm 3 mps 755 mmHg 66%
    23:00 +17°C° 0 mm 3 mps 755 mmHg 66%

    27 September, Wednesday

    Time Temperature Precipitation Wind Pressure Humidity
    00:00 +16°C° 0 mm 3 mps 755 mmHg 66%
    01:00 +14°C° 0 mm 3 mps 756 mmHg 67%
    02:00 +14°C° 0 mm 3 mps 756 mmHg 66%
    03:00 +14°C° 0 mm 3 mps 756 mmHg 66%
    04:00 +14°C° 0 mm 2 mps 756 mmHg 65%
    05:00 +14°C° 0 mm 2 mps 756 mmHg 63%
    06:00 +15°C° 0 mm 2 mps 756 mmHg 61%
    07:00 +15°C° 0 mm 2 mps 757 mmHg 60%
    08:00 +17°C° 0 mm 2 mps 757 mmHg 54%
    09:00 +18°C° 0 mm 3 mps 757 mmHg 48%
    10:00 +20°C° 0 mm 3 mps 757 mmHg 42%
    11:00 +21°C° 0 mm 3 mps 757 mmHg 39%
    12:00 +22°C° 0 mm 3 mps 757 mmHg 35%
    13:00 +23°C° 0 mm 4 mps 756 mmHg 32%
    14:00 +22°C° 0 mm 3 mps 756 mmHg 34%
    15:00 +22°C° 0 mm 3 mps 756 mmHg 36%
    16:00 +21°C° 0 mm 3 mps 756 mmHg 39%
    17:00 +20°C° 0 mm 3 mps 756 mmHg 42%
    18:00 +18°C° 0 mm 2 mps 757 mmHg 45%
    19:00 +16°C° 0 mm 2 mps 757 mmHg 48%
    20:00 +16°C° 0 mm 3 mps 757 mmHg 49%
    21:00 +14°C° 0 mm 3 mps 757 mmHg 51%
    22:00 +14°C° 0 mm 3 mps 757 mmHg 52%
    23:00 +14°C° 0 mm 3 mps 757 mmHg 54%

    28 September, Thursday

    Time Temperature Precipitation Wind Pressure Humidity
    00:00 +13°C° 0 mm 3 mps 758 mmHg 55%
    01:00 +13°C° 0 mm 3 mps 758 mmHg 56%
    02:00 +12°C° 0 mm 3 mps 758 mmHg 58%
    03:00 +12°C° 0 mm 3 mps 758 mmHg 60%
    04:00 +12°C° 0 mm 2 mps 758 mmHg 61%
    05:00 +13°C° 0 mm 2 mps 758 mmHg 61%
    06:00 +13°C° 0 mm 2 mps 758 mmHg 61%
    07:00 +12°C° 0 mm 3 mps 758 mmHg 61%
    08:00 +14°C° 0 mm 3 mps 758 mmHg 56%
    09:00 +17°C° 0 mm 3 mps 758 mmHg 50%
    10:00 +19°C° 0 mm 3 mps 758 mmHg 45%
    11:00 +20°C° 0 mm 3 mps 758 mmHg 43%
    12:00 +21°C° 0 mm 3 mps 758 mmHg 40%
    13:00 +21°C° 0 mm 3 mps 757 mmHg 38%
    14:00 +21°C° 0 mm 3 mps 757 mmHg 40%
    15:00 +20°C° 0 mm 3 mps 757 mmHg 42%
    16:00 +20°C° 0 mm 3 mps 757 mmHg 44%
    17:00 +18°C° 0 mm 2 mps 757 mmHg 48%
    18:00 +17°C° 0 mm 2 mps 757 mmHg 52%
    19:00 +15°C° 0 mm 2 mps 757 mmHg 56%
    20:00 +14°C° 0 mm 2 mps 758 mmHg 57%
    21:00 +14°C° 0 mm 2 mps 758 mmHg 58%
    22:00 +13°C° 0 mm 2 mps 758 mmHg 59%
    23:00 +13°C° 0 mm 2 mps 758 mmHg 59%

    29 September, Friday

    Time Temperature Precipitation Wind Pressure Humidity
    00:00 +12°C° 0 mm 2 mps 758 mmHg 59%
    01:00 +12°C° 0 mm 2 mps 758 mmHg 59%
    02:00 +10°C° 0 mm 2 mps 758 mmHg 59%
    03:00 +10°C° 0 mm 2 mps 758 mmHg 58%
    04:00 +9°C° 0 mm 2 mps 758 mmHg 58%
    05:00 +10°C° 0 mm 2 mps 758 mmHg 57%
    06:00 +10°C° 0 mm 2 mps 758 mmHg 55%
    07:00 +10°C° 0 mm 2 mps 758 mmHg 54%
    08:00 +13°C° 0 mm 2 mps 758 mmHg 50%
    09:00 +15°C° 0 mm 2 mps 758 mmHg 45%
    10:00 +17°C° 0 mm 2 mps 758 mmHg 40%
    11:00 +18°C° 0 mm 2 mps 758 mmHg 39%
    12:00 +19°C° 0 mm 2 mps 757 mmHg 37%
    13:00 +21°C° 0 mm 1 mps 757 mmHg 36%
    14:00 +19°C° 0 mm 2 mps 757 mmHg 37%
    15:00 +19°C° 0 mm 2 mps 756 mmHg 39%
    16:00 +19°C° 0 mm 2 mps 756 mmHg 40%
    17:00 +17°C° 0 mm 2 mps 756 mmHg 43%
    18:00 +15°C° 0 mm 2 mps 756 mmHg 46%
    19:00 +14°C° 0 mm 2 mps 756 mmHg 49%
    20:00 +13°C° 0 mm 2 mps 756 mmHg 50%
    21:00 +12°C° 0 mm 2 mps 756 mmHg 51%
    22:00 +12°C° 0 mm 2 mps 756 mmHg 51%
    23:00 +10°C° 0 mm 2 mps 756 mmHg 53%
    Show more